RH
5 5 7 7 9 9 10 11 13 16 16 17 17 18 19 20 21 21 21 20 19 18 18 18 19 18 18 21 24 25 28 26 21 17 17 20 20 19 18 16 15 13 12 11 10 7 10 14 15 16 15 14 12 14 18 19 16 17 30 37 43 47 33 25 27 26 27 25 24 23 23 26 27 28 29 32 34 36 38 37 39 40 41 43 44 45 46 42
5 7 8 10 11 12 13 15 17 17 16 16 17 18 20 20 21 21 21 19 18 17 16 15 16 18 16 17 21 24 26 24 18 18 20 21 21 21 19 16 15 15 15 14 13 10 9 12 12 13 12 9 12 16 17 17 16 20 29 34 42 41 27 22 23 21 23 22 23 25 24 25 27 25 24 35 43 41 43 40 36 37 38 38 39 40 41 36
7 9 11 12 14 16 18 18 18 16 14 15 16 18 19 20 21 20 19 18 17 16 15 13 12 14 15 14 18 22 25 22 18 20 21 20 22 22 20 18 17 17 18 17 16 15 12 12 13 13 11 9 12 15 15 16 18 19 23 32 35 28 23 22 20 20 22 21 22 26 25 25 27 24 25 40 48 46 49 43 35 35 34 34 36 36 37 34
10 12 13 15 17 20 21 21 20 17 16 16 17 19 19 20 19 19 18 17 17 16 16 15 12 11 12 12 14 19 21 22 20 21 21 20 21 20 20 18 17 18 18 19 18 18 18 16 16 14 14 14 12 12 14 17 18 19 25 32 24 19 26 23 18 20 22 22 22 25 26 27 26 25 28 38 48 50 46 39 34 33 32 33 34 35 35 34
12 14 17 19 21 23 23 22 21 19 18 18 18 19 19 18 18 18 18 17 17 17 17 17 17 15 15 15 18 21 25 27 22 20 20 19 21 20 19 15 15 15 13 17 16 16 20 17 16 15 15 15 15 16 17 16 16 21 25 23 17 18 26 22 17 19 21 23 24 25 28 28 25 27 29 34 49 52 42 37 33 31 31 33 33 35 36 35
16 19 21 23 23 24 23 22 20 19 19 18 19 19 18 17 17 19 18 17 17 17 15 15 18 19 19 19 18 18 25 29 21 19 20 18 20 19 17 14 16 16 10 12 13 14 17 15 16 16 16 18 21 24 20 15 16 28 28 17 16 19 22 22 18 18 22 24 26 26 26 27 28 31 30 32 43 44 39 37 31 30 31 31 34 34 36 37
21 23 24 24 24 24 22 20 19 19 19 19 20 19 17 15 16 19 18 18 17 16 16 16 17 19 20 23 23 17 18 24 20 20 20 18 20 17 15 16 19 18 12 9 7 13 14 13 16 15 23 27 22 24 22 15 17 32 33 18 15 18 18 19 18 20 22 23 25 24 24 27 31 34 31 32 37 37 37 36 29 30 31 30 33 34 35 37
23 24 25 24 24 23 21 19 18 19 19 20 20 18 15 15 15 16 17 18 17 16 16 15 16 17 18 24 30 20 14 20 20 21 21 20 19 13 12 16 21 20 13 9 9 14 12 14 18 16 27 27 19 27 26 24 30 36 32 18 16 18 18 18 19 22 22 23 26 25 26 27 29 30 30 32 34 33 33 32 29 28 30 31 32 34 35 35
25 25 24 25 24 23 21 19 19 18 19 21 21 17 14 14 15 14 15 16 16 15 13 13 12 14 21 23 23 18 16 20 20 21 21 19 19 11 9 14 18 16 10 9 12 14 14 17 20 19 26 22 20 28 25 35 45 35 28 22 16 16 18 19 20 21 21 23 26 26 29 29 26 28 31 32 29 30 30 28 28 28 29 31 32 33 33 33
25 24 24 25 24 23 21 19 18 18 19 21 20 18 16 14 13 11 12 14 14 14 14 17 13 11 16 15 13 17 18 18 18 19 19 20 19 11 9 10 11 12 10 12 13 14 17 20 21 22 26 22 22 25 21 39 44 29 28 25 16 15 18 20 20 21 20 22 25 27 32 30 26 31 36 32 27 28 28 27 26 27 30 30 32 33 32 33
24 24 24 25 24 23 21 18 18 17 18 20 19 17 14 12 11 11 13 13 13 16 18 21 19 13 10 8 12 19 17 16 18 17 17 21 20 12 9 8 6 8 10 13 17 18 20 21 19 21 27 28 27 23 17 29 34 25 24 23 20 16 14 19 21 22 21 22 22 23 30 30 27 35 38 31 28 28 26 27 26 26 29 30 32 33 33 33
24 24 24 24 23 21 19 18 16 16 18 19 17 13 11 12 13 14 14 13 12 15 18 18 18 13 9 10 15 18 15 15 18 18 18 20 19 13 10 9 7 7 8 12 17 18 20 21 20 22 24 27 32 30 22 24 30 26 22 27 38 32 20 18 20 21 24 24 20 21 32 36 34 36 34 29 28 27 25 26 26 26 28 30 32 33 33 33
24 23 23 22 21 19 17 18 17 18 20 18 14 10 12 14 13 14 12 12 11 12 18 22 23 17 9 12 16 15 14 13 14 17 18 19 20 16 13 12 9 10 9 10 15 15 15 16 17 20 18 24 34 30 23 21 21 24 27 34 46 48 36 21 16 20 23 23 19 23 34 37 38 34 29 30 29 26 25 25 25 26 27 29 31 32 31 32
23 22 22 21 20 19 18 19 20 20 20 17 13 12 13 13 13 13 11 12 12 12 18 23 26 20 11 13 15 13 12 11 11 13 15 19 22 19 16 15 11 14 13 13 17 16 16 12 8 11 13 22 28 24 29 30 23 30 43 51 50 40 33 22 18 21 21 22 19 25 37 34 34 35 29 30 28 26 25 24 25 25 26 28 29 30 31 31
23 22 21 21 20 19 19 19 19 19 19 16 14 14 13 12 12 12 12 12 12 14 17 17 17 14 11 12 13 11 10 9 8 10 12 15 19 18 18 16 12 14 16 16 17 16 20 16 7 11 13 16 20 30 46 45 41 47 45 55 57 36 31 30 24 23 20 21 19 25 42 41 33 33 30 28 28 26 25 23 24 24 25 27 27 29 31 32
22 22 20 19 18 18 18 17 17 17 17 16 16 15 12 12 11 11 12 11 11 13 14 14 12 10 13 13 11 11 10 9 9 10 11 13 14 13 14 14 12 15 18 17 16 15 19 18 14 15 17 19 25 49 67 55 58 68 47 44 49 35 41 45 28 23 23 26 27 26 37 37 29 31 30 29 28 26 25 23 23 24 24 25 26 29 31 33
22 21 19 17 16 16 16 16 16 16 17 17 16 15 13 12 11 11 11 12 15 14 13 14 12 11 13 12 11 12 13 13 10 9 10 11 12 12 12 13 12 14 18 17 13 11 13 14 17 17 22 29 33 52 66 52 52 65 57 54 53 42 51 52 32 24 25 30 33 29 32 31 27 31 30 28 28 26 26 24 23 24 25 26 27 29 31 33
22 20 17 15 14 15 15 15 15 14 14 14 13 12 11 12 12 11 11 13 14 13 14 13 12 16 15 11 14 14 13 13 10 9 10 10 12 13 13 13 14 15 17 16 10 10 11 12 17 23 29 35 38 45 47 39 42 54 59 60 60 58 59 50 30 19 20 27 34 36 38 34 29 32 30 28 28 27 26 25 24 25 26 28 29 31 33 34
20 18 14 13 14 14 13 13 12 13 13 13 12 10 8 7 8 8 8 9 11 14 18 15 14 18 15 12 14 13 12 12 10 9 9 11 13 14 15 16 18 17 19 22 15 11 14 21 28 33 38 40 42 46 39 31 38 48 53 55 61 67 64 47 24 16 24 33 40 43 41 33 28 31 31 28 27 27 27 25 25 26 28 30 32 34 34 35
19 16 13 14 14 12 13 12 12 13 13 15 16 17 13 9 11 12 10 9 11 14 16 14 14 14 13 14 15 12 11 11 10 9 10 12 12 14 17 16 16 20 30 38 28 15 19 37 44 37 37 37 33 38 36 28 32 43 51 58 66 65 53 35 19 20 30 35 36 37 36 32 28 28 30 29 28 29 28 27 26 27 30 32 34 36 37 39
17 14 16 16 13 12 12 10 11 11 11 13 16 19 19 17 20 20 16 14 13 12 12 12 14 14 14 15 17 15 11 10 10 8 10 12 13 17 18 21 26 28 34 37 28 19 23 39 44 31 29 34 37 42 39 33 34 42 52 58 57 48 32 21 21 25 28 32 34 31 30 31 27 26 28 29 30 30 27 27 30 31 34 36 37 39 38 38
15 15 17 14 13 13 10 9 11 11 10 10 10 12 15 16 18 18 19 19 17 16 14 12 12 14 15 15 18 17 13 13 13 10 12 11 14 20 21 30 41 38 40 42 40 41 37 34 32 28 35 42 45 48 44 40 37 39 54 57 45 36 29 25 26 27 26 32 36 32 33 33 28 28 29 30 30 31 30 30 34 37 38 39 39 38 33 30
16 17 16 14 14 12 10 11 12 12 12 10 10 10 12 16 18 20 21 19 20 19 16 13 13 14 15 15 17 17 15 17 18 17 17 13 16 23 25 37 50 49 51 52 47 45 38 28 24 29 41 38 34 47 52 46 39 38 46 46 39 36 34 31 28 29 31 36 38 36 38 39 37 35 32 32 35 36 35 34 36 37 36 36 33 30 27 25
16 16 15 15 14 12 13 12 12 13 12 12 13 11 12 17 20 22 21 20 23 22 18 15 13 15 16 15 17 18 17 17 20 21 19 17 18 25 29 37 49 50 53 54 45 39 33 23 24 35 40 28 24 43 52 44 40 44 44 37 36 38 36 34 35 35 34 38 42 40 40 43 42 40 37 36 39 39 38 37 38 35 30 29 27 26 26 26
16 16 15 15 14 13 13 14 14 12 13 15 13 12 13 12 14 16 20 29 28 20 20 17 12 16 17 15 16 17 17 15 17 22 22 19 18 26 30 30 37 43 51 57 47 42 38 25 29 41 42 35 31 32 36 40 43 48 49 38 33 39 40 37 37 40 40 41 43 44 51 54 39 33 42 43 42 42 41 40 37 32 28 27 27 27 27 27
16 16 15 15 15 14 14 18 17 11 17 17 10 15 15 13 16 13 24 51 47 23 19 19 14 17 18 15 13 15 21 19 16 20 21 19 18 25 31 29 33 36 41 49 42 38 40 36 44 50 45 43 36 23 26 39 44 43 45 41 39 44 43 40 40 46 49 43 39 39 46 49 30 23 40 47 46 47 45 41 34 29 29 28 27 27 27 28
16 15 15 15 14 14 14 18 15 11 17 14 11 16 13 17 20 12 30 59 48 21 18 20 15 16 20 19 14 17 24 21 17 19 18 19 17 19 29 37 43 39 38 49 45 38 41 47 58 58 48 43 32 23 28 37 40 39 38 40 44 46 45 45 43 45 47 41 44 41 30 35 31 24 41 50 50 54 50 43 35 28 28 27 27 28 27 28
15 14 15 14 14 14 13 15 14 14 15 11 14 13 12 20 17 23 48 47 24 17 21 21 15 14 17 17 16 19 23 21 22 23 16 16 16 17 29 37 43 47 48 48 38 33 40 44 53 54 45 36 26 25 31 34 38 42 45 47 50 52 50 45 42 46 45 42 56 51 29 37 37 25 45 57 56 62 56 45 37 28 27 27 27 28 26 26
14 14 14 13 14 14 13 14 13 13 13 11 13 11 14 16 14 41 59 31 16 25 25 20 16 15 17 18 19 20 22 23 25 25 17 15 16 20 30 30 34 48 50 40 30 30 37 37 44 49 38 30 29 31 32 33 38 45 49 49 47 48 43 36 40 43 39 48 66 52 29 42 43 33 55 68 65 68 56 42 36 27 26 28 27 27 26 26
14 14 13 13 13 13 13 13 13 15 14 11 12 14 16 19 37 64 49 16 25 31 22 22 19 18 27 32 29 23 25 25 22 25 23 19 17 17 25 22 27 49 55 48 44 41 40 40 44 45 31 29 34 29 24 26 32 36 40 41 38 41 39 34 38 34 33 54 67 45 25 39 49 53 70 74 68 64 49 38 34 27 27 28 27 27 26 26
14 13 12 12 11 11 11 11 14 17 13 11 13 12 17 32 56 64 30 11 32 34 26 33 31 33 42 43 34 29 34 29 21 29 35 36 33 30 34 32 38 61 64 61 61 55 49 45 45 42 30 30 33 26 23 29 32 34 39 40 36 40 42 39 41 42 42 49 48 33 27 37 48 62 72 69 62 55 46 39 33 29 28 28 28 27 26 26
11 10 10 11 10 11 10 10 13 13 10 14 14 14 35 50 44 37 29 24 31 32 31 38 43 47 51 48 37 33 41 37 28 35 43 53 59 56 56 57 58 55 47 54 60 54 51 44 41 40 32 29 29 30 37 41 39 38 39 43 47 51 52 49 48 49 47 40 34 31 33 36 39 53 66 63 55 46 38 34 30 29 30 28 28 28 27 27
9 9 10 12 12 12 11 11 11 11 11 13 11 21 49 56 29 22 37 34 24 28 33 42 55 59 52 46 38 37 42 37 31 34 39 49 60 61 60 65 64 45 37 53 56 49 53 50 43 40 31 26 26 29 33 33 37 41 37 42 51 55 64 72 64 55 51 43 34 30 37 44 40 47 62 58 45 35 26 25 28 29 30 30 29 29 27 26
9 9 11 10 10 10 11 13 11 11 13 12 23 43 48 34 21 26 38 38 36 40 43 50 60 57 42 34 35 39 40 36 37 40 46 52 55 59 63 64 63 56 56 61 52 45 44 40 39 37 30 29 31 30 28 28 40 43 35 42 50 47 62 81 73 60 57 52 43 33 39 50 44 46 58 51 38 29 21 23 30 31 31 31 30 28 26 25
10 9 8 7 8 8 9 11 9 13 15 11 33 62 48 23 25 38 45 52 52 47 49 54 54 47 40 38 40 37 31 35 46 49 56 63 59 59 65 64 62 65 67 59 48 46 40 36 39 35 31 31 31 32 35 37 43 44 43 54 59 49 51 69 70 57 58 66 60 43 38 37 31 40 53 47 33 24 21 27 32 32 32 31 29 27 26 26
11 9 8 8 9 8 10 9 8 16 17 12 29 50 45 34 38 47 52 55 52 48 54 57 50 46 48 49 46 38 30 38 49 46 48 61 64 62 66 65 60 64 66 60 55 55 52 51 48 39 35 32 27 33 38 34 36 45 46 44 48 47 47 65 76 59 57 72 61 43 45 37 29 41 45 37 31 23 24 32 32 33 33 29 29 28 26 27
11 9 10 12 10 11 14 10 12 17 10 16 39 46 42 43 48 60 64 55 54 57 54 48 40 36 40 45 46 41 38 42 43 33 32 48 56 60 69 68 56 57 66 65 61 63 65 62 56 46 34 25 24 31 37 33 34 45 44 36 46 57 52 62 77 66 65 75 56 41 53 50 47 56 44 30 31 27 28 35 34 34 32 28 29 28 27 29
13 12 10 13 13 11 14 12 15 13 3 29 62 54 48 55 53 60 63 55 62 62 46 40 36 29 32 42 48 46 41 45 46 33 29 42 51 58 72 72 59 58 66 64 60 63 67 65 63 51 31 25 31 36 41 42 38 36 35 39 59 73 69 66 67 66 74 80 64 50 53 51 52 59 47 33 32 30 33 39 36 34 31 29 29 28 29 31
16 14 8 12 15 9 12 13 9 6 12 45 69 54 53 67 57 50 54 59 66 57 40 39 39 37 39 39 44 50 46 46 47 36 31 39 47 57 70 69 62 62 66 71 70 66 64 66 67 57 40 33 35 37 41 43 44 41 34 41 60 70 70 65 58 63 76 79 72 65 61 53 46 45 41 34 30 33 41 42 36 33 30 29 29 29 31 31
17 14 8 10 14 11 10 7 7 20 38 55 65 58 56 63 54 44 48 57 58 46 39 43 42 45 48 43 47 52 46 44 41 36 40 45 46 59 73 77 78 75 69 72 72 65 62 65 65 59 49 38 32 32 32 30 36 42 41 50 67 68 63 63 62 62 68 73 77 81 77 59 41 34 33 29 29 36 42 40 35 31 30 29 29 30 31 32
15 15 10 6 11 11 7 9 20 44 63 63 64 65 58 55 53 46 45 51 51 42 41 46 47 48 47 47 54 51 43 46 45 36 41 48 49 56 69 81 89 88 80 74 70 66 66 69 71 69 59 40 28 28 31 31 31 34 40 49 61 69 73 78 75 60 58 70 78 90 92 66 41 31 26 25 32 38 38 35 32 31 30 30 30 31 32 32
11 18 13 6 11 8 8 29 42 52 68 67 59 59 55 51 49 45 45 48 49 46 42 43 48 52 47 43 53 54 44 46 49 40 42 56 61 59 65 72 74 77 83 80 72 68 70 73 76 77 65 43 32 33 39 45 38 33 42 45 48 63 71 75 76 66 68 75 71 77 85 64 41 31 23 25 35 38 34 32 31 32 30 30 31 32 33 33
11 16 12 7 11 4 11 40 54 57 65 60 50 50 52 50 45 45 49 48 47 47 44 42 42 44 46 44 50 54 42 38 44 40 45 66 71 61 64 67 58 57 66 67 64 64 67 66 60 56 47 35 35 37 39 45 41 32 37 41 48 63 68 69 75 76 86 87 73 75 79 56 36 28 24 29 37 36 32 31 32 33 31 31 32 33 34 34
8 10 9 11 11 6 19 43 56 62 61 49 48 50 46 43 45 55 60 50 48 51 47 44 39 37 46 48 49 52 39 30 36 34 40 63 71 61 59 60 55 52 50 51 55 60 64 61 54 53 50 39 35 35 34 38 36 29 32 39 51 64 70 74 76 81 92 83 66 76 79 52 31 26 25 32 38 35 32 32 33 33 32 33 34 35 36 38
10 8 6 9 7 8 23 35 45 63 65 53 50 48 45 40 37 50 55 40 38 45 43 40 37 38 48 49 50 55 42 27 32 39 46 62 72 65 52 48 52 52 51 55 60 71 84 76 55 52 57 54 50 45 40 38 37 38 40 40 52 67 72 73 75 85 90 72 60 73 71 47 32 28 31 38 40 36 34 33 34 34 34 35 36 36 39 41
15 19 17 14 7 9 19 18 23 46 60 57 47 38 43 46 36 39 46 38 34 37 39 41 39 40 48 51 53 53 42 34 37 44 50 60 67 60 51 53 54 50 53 58 58 72 93 81 50 40 46 51 50 41 35 41 49 54 49 42 58 80 79 70 73 78 74 68 66 61 54 51 44 36 40 45 41 38 35 34 35 35 35 37 37 38 41 43
18 30 33 25 15 18 28 25 24 33 40 45 43 33 37 47 44 39 40 38 34 34 38 43 45 46 46 51 57 53 45 43 44 44 47 56 61 55 54 58 50 38 40 44 46 60 74 69 56 50 46 45 45 40 41 51 52 47 43 44 62 79 70 59 63 61 57 68 70 49 44 59 53 40 47 49 40 36 35 34 35 36 37 38 37 40 44 43
20 28 31 29 28 36 43 35 29 31 31 38 44 39 39 45 46 44 43 38 35 37 42 45 54 60 54 51 53 53 48 44 48 56 55 54 63 64 62 57 42 30 31 37 45 55 65 70 63 54 51 50 50 49 48 49 42 35 38 43 49 56 54 49 51 49 49 64 66 49 48 58 49 44 49 44 36 36 34 35 36 37 38 38 39 44 45 43
17 21 23 25 26 34 41 35 30 33 38 45 48 44 46 45 41 44 51 49 43 41 38 43 58 68 66 59 50 46 46 38 41 61 64 58 67 71 65 59 51 40 38 46 52 49 56 69 64 58 63 59 51 50 47 42 38 34 38 40 36 38 42 43 43 41 43 52 53 48 52 53 45 46 46 37 33 34 34 35 37 38 39 39 43 48 46 45
13 14 13 18 21 25 30 30 35 45 47 46 43 41 48 52 47 49 55 52 50 49 44 46 62 71 67 61 53 52 57 52 51 65 68 63 68 73 68 64 63 58 52 57 60 43 37 52 60 65 70 59 45 44 42 39 37 36 38 37 33 37 43 46 48 47 49 55 51 49 58 57 46 42 39 34 34 34 35 37 37 39 40 40 45 48 47 50
9 8 5 14 25 28 24 21 35 56 60 55 51 49 54 61 57 54 54 50 49 54 51 49 62 74 68 60 63 70 72 71 71 71 67 62 62 66 66 57 57 63 61 62 64 52 46 55 61 68 72 58 40 36 38 35 36 46 54 44 34 43 50 50 50 48 49 57 58 59 67 64 49 39 36 34 34 35 37 38 38 39 40 42 46 48 51 57
7 8 6 13 26 30 30 31 42 50 47 49 58 57 53 58 55 47 46 47 45 45 46 48 57 70 67 56 59 65 62 65 73 69 61 56 50 51 52 43 40 50 58 58 56 53 56 57 55 65 72 57 36 34 42 44 47 60 64 45 35 42 47 46 46 43 42 50 60 67 67 56 43 37 37 37 36 37 39 38 39 41 41 45 48 50 56 60
Wind_Speed
10 10 9 9 8 7 7 6 5 5 5 5 6 6 5 6 7 9 9 10 9 9 8 6 5 5 7 10 11 11 10 12 15 16 18 18 15 14 14 13 11 8 8 6 6 5 3 2 2 3 5 5 7 7 5 4 2 1 2 2 2 1 1 1 2 1 0 2 5 6 8 7 3 6 11 9 14 19 18 19 17 14 13 10 8 5 5 7
10 9 9 9 8 7 6 5 5 5 5 5 5 5 5 6 7 9 10 11 11 9 9 7 4 2 4 7 8 8 8 11 16 19 20 16 15 16 14 13 13 10 10 9 8 7 3 3 3 1 3 4 6 6 4 3 3 2 2 1 3 3 0 2 4 3 4 3 3 7 9 9 3 4 2 3 7 13 13 12 13 13 11 9 8 7 7 9
9 9 9 8 8 7 6 5 5 5 4 4 4 5 7 7 8 10 11 11 11 11 12 10 7 2 4 7 7 6 5 9 18 21 17 14 14 14 13 13 13 12 12 11 9 9 7 5 5 3 3 5 6 6 4 3 2 2 2 1 4 3 3 6 7 5 5 3 4 7 7 8 4 4 3 6 7 7 7 6 8 11 10 9 8 8 9 10
9 9 9 8 7 6 6 5 5 5 4 4 5 7 8 9 10 12 12 11 12 15 17 17 14 9 6 6 4 2 0 5 16 18 13 12 13 12 11 12 12 12 11 10 9 8 8 7 5 5 4 5 4 4 2 3 2 1 3 3 4 2 4 4 7 5 5 5 4 7 7 6 4 2 4 10 7 4 5 7 8 10 10 8 7 8 9 10
9 9 9 8 7 6 6 6 6 6 6 6 7 9 9 11 13 13 13 10 12 16 18 18 17 16 12 8 5 4 1 0 10 13 11 12 12 11 9 10 12 13 11 8 8 7 7 9 7 5 3 3 2 0 1 1 1 1 2 5 1 4 4 1 5 5 4 4 2 6 7 4 4 3 3 7 5 4 9 10 10 11 10 9 8 8 9 10
10 9 8 7 6 6 7 7 7 7 7 8 9 10 11 13 14 15 14 11 11 11 13 14 13 13 12 12 12 10 6 2 8 11 11 11 11 11 8 9 13 13 13 9 6 5 5 7 4 4 3 0 2 2 1 2 1 0 2 3 6 5 6 4 4 4 3 3 2 5 7 7 7 3 2 4 6 9 11 11 11 10 9 9 9 9 9 10
10 9 8 7 7 7 8 8 8 8 9 10 10 10 12 13 14 14 15 14 10 8 9 11 9 6 6 6 8 13 14 7 8 10 11 11 11 12 8 9 12 12 15 13 8 4 3 6 4 3 2 2 2 1 2 4 1 2 2 0 4 5 6 5 3 3 2 2 3 7 7 7 9 5 3 6 9 11 11 10 10 9 9 8 8 9 10 10
9 8 8 8 8 8 9 8 8 8 9 10 10 10 11 12 12 12 14 14 11 10 9 11 8 3 4 4 4 11 17 12 10 11 10 10 10 11 10 9 10 11 15 15 12 6 1 6 9 6 3 2 3 2 3 4 2 3 1 2 3 5 5 5 3 4 3 2 5 7 6 7 10 8 7 10 10 10 10 10 10 10 9 8 8 8 9 10
9 8 9 9 8 8 8 8 8 9 9 10 9 10 9 9 10 11 13 12 12 12 12 14 11 6 4 5 7 10 14 14 11 11 10 10 9 11 11 9 9 12 14 15 15 9 5 8 8 7 3 2 5 3 4 3 1 1 2 3 2 5 6 6 5 6 5 5 8 7 4 6 10 7 5 10 11 10 10 11 11 11 9 8 8 8 8 9
9 9 9 8 8 8 7 7 8 9 9 9 9 9 8 8 9 12 13 12 11 10 12 13 13 13 8 7 13 11 12 14 11 10 10 9 8 9 11 10 10 13 16 17 16 14 13 10 7 5 2 4 5 3 4 1 1 2 3 4 2 5 7 8 10 8 5 5 9 8 4 8 12 6 3 10 14 11 12 12 12 12 9 9 8 7 7 7
9 9 8 8 8 8 8 7 7 8 8 8 9 9 10 10 10 9 9 10 10 10 11 10 11 15 13 17 21 12 14 17 13 12 11 7 7 8 11 12 11 12 15 17 17 17 16 13 10 6 2 5 6 2 4 2 1 3 3 3 3 2 4 7 9 10 5 4 9 8 3 6 10 4 6 15 16 14 15 14 14 12 10 10 9 8 6 5
9 8 8 8 9 9 9 8 8 7 7 8 9 10 11 10 8 7 8 7 8 9 11 11 12 12 15 25 27 17 18 20 15 14 12 7 6 7 11 13 13 12 12 14 17 17 16 15 14 11 8 7 3 2 3 2 2 4 1 1 5 6 5 7 5 10 7 3 7 4 2 1 7 6 7 17 18 16 15 15 15 13 11 11 10 9 6 6
9 9 9 10 10 10 9 8 8 7 7 8 9 10 8 8 8 7 8 7 6 6 7 9 10 12 16 21 21 19 20 21 18 14 12 8 4 5 9 12 14 15 13 12 15 17 18 17 14 14 16 11 2 2 4 3 3 4 2 2 4 7 4 10 7 6 5 3 6 3 3 6 8 8 11 17 18 17 16 16 16 14 12 11 10 9 8 7
11 11 11 11 10 9 8 7 8 7 8 9 8 7 7 9 12 10 8 8 7 6 7 8 5 9 16 16 16 21 20 20 20 18 15 11 6 5 7 8 11 13 12 12 12 13 15 16 18 17 17 15 4 3 5 2 4 5 4 2 4 4 4 12 12 3 1 3 7 4 4 8 6 9 16 17 18 17 17 17 16 15 14 12 11 9 8 8
13 13 12 11 10 9 8 9 9 9 10 9 8 7 7 10 11 12 10 7 8 8 7 9 7 8 12 12 14 19 21 21 22 22 19 13 9 8 6 5 6 9 11 13 14 12 9 12 20 20 16 20 13 2 4 4 4 5 5 4 4 4 4 12 13 4 1 3 5 4 4 8 6 9 19 18 18 19 17 17 17 16 14 12 10 9 9 9
13 12 11 11 11 10 10 10 10 10 10 9 7 6 6 5 5 11 9 7 7 7 6 8 10 12 11 8 9 17 22 23 25 23 17 12 10 10 9 4 2 6 8 11 15 10 8 10 15 19 20 21 14 3 4 6 5 4 4 4 5 5 5 7 10 5 0 4 3 4 5 8 6 7 19 18 18 19 17 17 17 15 13 12 10 9 9 7
11 11 11 13 14 15 14 14 12 11 10 9 8 7 5 3 4 7 7 8 9 10 12 10 7 11 14 11 10 16 20 22 26 24 16 10 8 9 11 6 2 7 7 6 11 10 10 10 7 9 14 11 5 4 6 5 6 5 3 2 4 4 5 5 8 7 4 6 7 6 6 10 9 5 16 18 18 19 17 16 17 14 12 11 9 8 7 6
11 11 13 16 17 17 17 17 16 15 14 13 14 14 14 12 9 7 6 6 7 11 14 14 9 5 10 17 16 16 16 18 26 25 16 8 5 7 10 8 7 10 6 4 11 13 10 9 6 2 6 7 5 7 6 2 4 5 4 3 4 4 5 6 8 9 10 9 9 9 7 11 11 3 13 18 20 20 17 14 15 14 12 11 10 9 8 9
11 13 16 16 15 15 15 16 18 18 16 15 15 17 19 22 21 19 18 15 13 10 7 13 14 3 2 13 18 17 13 16 25 25 19 11 4 7 8 6 7 10 8 6 9 13 9 6 7 4 5 6 5 5 4 3 5 8 7 5 5 5 5 6 9 10 11 9 7 8 8 10 12 6 10 18 22 20 15 10 12 14 13 12 11 10 9 10
13 16 15 13 13 13 12 11 11 9 8 7 7 9 10 14 16 18 25 28 25 18 11 12 14 7 4 10 17 19 13 16 26 27 24 16 4 6 12 8 8 12 7 3 4 10 10 7 5 3 4 5 6 2 2 2 3 5 5 5 5 5 5 6 11 11 8 7 7 9 10 11 12 11 9 18 21 14 8 8 13 15 15 14 12 11 9 10
16 15 12 12 11 10 10 10 10 9 9 7 6 7 6 6 7 8 16 22 21 18 17 18 17 15 11 9 14 19 16 19 29 30 24 19 8 6 13 11 8 10 7 2 5 6 10 8 3 4 4 5 5 2 4 5 7 7 5 3 4 4 6 9 10 9 8 6 10 11 11 10 11 13 8 13 11 5 8 12 16 19 18 15 12 12 13 13
15 12 10 10 10 10 11 11 12 13 13 11 11 14 14 13 12 11 11 13 13 13 14 18 21 21 17 13 12 16 20 21 26 31 27 21 16 9 11 12 6 4 6 4 5 5 8 4 5 7 5 4 5 4 7 7 6 6 4 2 3 4 8 10 7 4 6 4 10 13 10 8 11 12 3 7 8 11 15 18 20 21 19 17 15 17 20 21
12 10 9 9 9 8 9 8 8 9 9 8 9 11 13 12 12 10 9 7 8 11 13 16 21 24 23 18 13 13 20 18 17 28 31 24 19 13 10 9 5 4 6 5 5 4 4 2 6 7 4 5 6 6 7 7 5 4 4 3 4 5 6 8 8 8 8 5 8 11 9 6 7 5 7 13 18 20 22 23 21 21 21 20 19 21 24 25
10 9 8 8 7 6 6 6 6 6 6 6 5 4 5 7 7 6 5 5 4 7 11 13 17 22 22 20 16 10 14 17 17 25 29 27 20 11 6 6 5 5 6 4 7 6 2 4 5 7 7 8 6 6 6 6 5 5 3 0 5 9 7 9 12 12 11 7 4 5 8 5 4 4 5 10 18 20 20 23 22 22 23 23 23 23 26 27
9 7 6 6 5 4 3 4 6 6 7 6 6 3 1 3 1 2 2 4 2 7 10 10 12 18 20 22 17 5 6 16 20 22 25 26 20 8 5 6 5 5 6 4 6 5 1 3 7 7 6 8 6 5 4 3 4 6 3 4 6 9 10 14 14 10 9 7 1 5 5 5 5 3 4 6 10 11 14 19 19 20 21 23 23 23 26 26
8 7 6 5 3 2 1 3 7 8 7 7 7 6 1 3 3 2 1 4 3 7 10 9 10 15 18 22 20 4 2 11 16 21 24 23 17 8 5 6 5 3 3 2 3 1 1 5 7 5 4 7 6 5 3 2 4 4 5 5 7 8 11 16 15 8 4 7 4 5 3 5 6 3 5 7 8 8 10 13 14 17 19 21 22 23 25 24
6 6 5 4 3 2 2 4 6 7 6 7 8 6 2 2 2 3 0 5 5 5 7 8 8 12 14 18 21 8 2 11 13 19 26 20 13 10 8 6 4 3 3 2 3 2 1 7 7 6 6 5 6 6 4 2 4 4 7 5 8 10 13 16 13 6 4 6 5 3 4 4 6 4 6 9 10 8 7 7 10 16 19 20 22 23 23 22
4 4 4 4 5 4 4 5 6 7 7 7 7 6 3 0 3 1 4 4 5 5 5 7 7 11 13 13 19 13 2 9 10 13 23 21 12 8 8 7 3 6 4 3 1 4 1 3 3 4 5 4 3 5 7 1 2 6 8 6 8 9 12 14 9 5 4 3 4 4 6 3 7 6 6 8 8 7 6 6 8 14 17 19 22 23 22 24
4 5 5 6 7 7 7 7 8 8 7 7 6 5 4 1 3 1 5 2 3 3 4 7 7 11 16 13 15 14 6 7 7 9 18 21 17 7 3 9 11 5 3 5 1 4 1 0 2 4 4 1 4 7 6 2 0 8 7 7 8 6 9 10 4 4 4 1 3 5 8 4 8 5 3 4 5 4 3 4 6 13 17 20 25 26 25 27
7 8 8 8 9 9 9 9 9 8 7 7 4 3 4 3 2 4 6 1 1 4 5 6 5 10 16 10 9 13 8 6 9 11 15 19 25 21 6 8 17 6 2 6 2 3 2 2 2 2 2 3 4 6 6 4 5 9 7 7 7 5 6 4 2 2 4 2 4 4 9 5 6 3 1 2 3 4 2 5 7 13 19 23 26 26 25 29
10 11 10 10 10 10 10 10 9 7 6 5 2 2 2 3 4 6 3 2 1 5 7 5 4 7 10 5 4 10 6 6 11 11 10 12 21 26 12 6 13 7 3 7 5 6 6 2 2 2 3 3 1 4 7 6 9 9 4 5 7 5 4 3 3 4 4 4 3 5 10 7 5 2 1 2 4 5 4 6 6 10 17 22 25 25 26 31
11 11 10 9 9 8 8 7 6 4 4 2 0 1 1 3 6 3 1 4 2 4 4 2 4 5 6 3 3 7 4 5 9 7 5 5 6 11 9 4 5 5 4 5 4 7 6 2 3 3 2 3 3 3 7 6 8 7 4 5 7 6 5 4 4 3 3 6 4 8 11 6 3 2 4 5 5 6 7 8 11 15 19 23 25 24 27 32
10 10 9 9 8 6 4 2 1 1 2 1 1 0 4 6 3 1 3 3 0 1 2 3 4 4 4 5 4 6 3 3 6 7 3 4 5 4 6 6 6 4 2 4 4 6 5 4 6 4 2 6 6 4 5 4 4 5 4 4 4 4 5 5 4 3 5 8 6 8 8 5 3 1 5 9 8 7 15 17 18 19 20 22 24 26 32 38
11 12 10 10 10 8 6 4 3 3 3 3 2 3 8 6 0 1 2 3 2 2 3 2 5 5 3 2 2 4 4 3 3 6 5 4 5 4 5 8 9 5 0 2 3 3 3 5 4 2 4 9 6 1 2 2 2 3 1 3 2 2 2 4 3 3 7 9 9 7 3 4 5 3 4 8 5 11 19 19 21 24 26 29 31 35 41 44
12 12 12 12 12 10 7 6 6 5 3 5 7 7 6 3 2 0 2 4 2 3 4 3 3 5 4 2 2 3 3 2 2 5 5 4 3 3 4 5 6 5 2 3 3 2 2 4 6 6 10 10 5 2 1 2 1 3 1 4 2 2 4 3 4 5 6 8 7 4 2 2 3 3 3 5 2 14 20 22 28 30 32 36 37 38 40 41
14 14 15 14 12 11 9 6 6 5 3 7 9 6 3 2 2 2 2 2 1 2 5 6 4 4 5 4 4 5 2 1 3 3 3 2 2 3 4 3 4 6 4 2 2 2 2 5 8 11 13 8 3 4 1 2 2 3 3 3 5 4 5 1 4 4 4 5 5 3 2 3 4 3 4 5 10 17 21 24 27 29 32 35 34 34 36 39
15 18 19 16 13 11 9 8 7 4 7 11 9 2 2 1 3 3 1 2 2 2 2 4 3 2 4 3 3 7 5 3 3 3 3 1 2 4 4 4 5 7 5 2 1 0 0 5 8 5 7 11 9 5 2 2 2 2 2 4 4 0 3 2 2 4 4 5 5 4 6 6 3 2 5 11 15 16 15 17 22 27 31 31 31 33 37 39
11 16 20 19 14 9 8 10 8 8 13 14 7 2 2 1 3 4 3 2 1 1 4 2 1 1 2 2 4 6 5 4 3 4 3 1 2 3 3 4 4 8 11 6 0 1 0 4 8 3 3 14 13 4 3 4 3 4 1 2 1 1 2 1 2 5 7 8 7 8 10 6 2 2 6 11 13 14 16 16 18 22 26 29 32 35 37 39
6 10 17 18 14 10 7 7 7 11 15 10 3 2 2 2 2 2 2 2 1 2 3 0 1 2 1 0 2 4 4 3 3 3 2 2 3 3 5 3 4 11 17 7 2 2 2 1 6 4 6 10 8 3 3 6 3 2 4 4 2 1 2 2 2 2 5 9 8 9 10 4 1 2 5 10 14 16 18 15 13 19 27 31 35 36 37 39
5 6 12 13 12 11 7 8 12 14 11 4 3 3 1 2 1 1 2 2 0 2 2 1 1 2 2 2 1 2 3 3 3 2 2 2 2 3 6 4 3 12 15 6 3 3 2 0 4 6 6 6 4 2 3 4 3 5 6 5 2 1 1 2 2 1 3 7 7 8 10 4 3 3 6 13 16 16 16 15 15 23 31 35 37 37 38 40
8 6 8 10 8 6 5 10 15 12 5 2 2 1 1 2 1 1 4 3 1 2 1 1 1 0 1 3 2 2 3 3 3 2 1 3 3 2 5 7 5 8 8 5 3 3 2 1 3 5 5 4 5 5 4 3 0 3 5 3 2 1 1 2 5 2 2 4 5 6 9 7 1 2 8 14 14 13 17 19 20 27 35 38 39 39 39 41
11 5 7 10 6 1 6 11 10 6 3 3 2 2 2 2 1 2 4 4 2 2 2 1 1 1 1 1 2 2 3 3 2 3 2 2 2 0 3 9 9 5 2 1 3 2 1 1 3 5 4 6 10 7 2 0 2 2 2 2 2 1 1 2 7 4 2 5 6 6 8 6 1 3 12 15 13 15 21 25 25 30 35 38 40 41 41 44
15 9 6 8 5 5 10 9 6 4 4 1 2 4 3 2 2 2 3 4 3 2 3 2 1 2 0 1 1 3 2 2 1 2 2 2 1 2 3 8 10 5 2 1 3 4 2 0 3 5 5 6 8 5 3 2 4 4 2 1 2 2 2 4 6 1 1 5 6 6 9 7 1 8 18 19 16 19 24 27 29 32 35 38 40 41 42 45
19 17 14 9 2 3 7 5 2 2 1 1 3 4 4 3 4 3 2 4 3 2 2 1 1 2 1 1 1 1 2 2 1 2 3 2 0 2 4 7 7 5 3 1 2 6 3 1 3 5 6 8 7 7 6 4 4 5 5 4 3 3 2 3 2 3 0 4 3 6 11 10 5 12 19 17 14 19 25 29 30 31 34 38 40 40 42 42
12 13 17 16 10 8 8 7 9 5 2 2 4 2 3 4 4 4 3 3 3 2 1 1 1 1 2 1 1 2 1 2 1 2 3 2 1 2 3 6 6 5 3 0 2 3 0 1 1 3 4 9 9 8 9 9 7 5 6 8 6 4 1 2 2 2 2 3 2 4 11 13 13 17 17 13 13 18 24 29 30 30 33 38 40 41 42 38
4 4 8 14 17 18 16 11 11 8 4 4 4 2 3 3 2 3 3 3 4 4 1 2 3 2 2 4 3 3 3 2 0 2 3 1 2 1 2 5 7 6 4 4 4 1 1 1 1 3 2 7 9 10 11 10 10 9 12 13 6 0 2 3 1 3 5 7 5 6 11 16 19 19 15 12 15 17 21 27 30 29 33 37 40 42 40 36
4 2 1 5 10 14 14 10 9 6 4 4 2 1 2 2 1 3 2 2 4 4 2 3 4 2 2 4 3 2 4 4 3 3 1 1 2 2 1 3 6 7 5 5 6 2 3 3 2 3 6 10 11 13 13 11 10 12 15 11 4 3 3 4 1 5 6 7 10 12 16 20 22 18 13 13 15 16 19 27 30 30 32 37 41 42 39 37
4 3 3 4 2 3 5 5 7 8 5 4 3 1 2 3 2 2 1 2 3 4 2 3 5 4 2 2 2 1 5 5 3 2 0 1 1 1 2 1 3 7 8 7 6 3 4 1 4 3 7 12 11 12 12 10 10 13 12 5 2 3 4 3 2 6 5 6 13 19 22 23 22 16 12 13 17 20 24 31 33 32 33 37 41 40 38 40
10 8 6 6 5 4 5 4 6 11 9 5 3 3 3 4 3 0 1 3 3 4 4 2 4 6 3 3 3 1 3 3 2 2 1 1 1 1 1 1 0 5 8 6 5 3 3 3 5 4 8 12 11 10 10 10 12 15 10 1 2 3 4 4 5 6 6 8 14 20 23 22 16 11 12 18 26 30 32 34 35 33 34 38 40 37 37 41
9 7 8 13 11 7 6 3 4 7 6 5 4 2 1 3 2 0 2 3 2 4 4 2 5 6 2 3 4 2 2 2 4 5 3 1 1 1 1 1 2 3 7 4 3 5 4 3 4 3 5 9 9 9 10 11 14 15 9 3 4 5 5 7 8 7 8 12 16 19 21 17 11 11 17 25 32 34 32 33 33 33 37 40 38 36 39 43
11 11 13 15 9 5 4 4 3 5 4 5 3 1 2 2 1 1 2 4 3 2 2 2 4 5 2 4 4 1 4 3 5 4 2 2 2 3 2 1 1 1 4 3 2 4 4 3 4 4 4 7 7 9 15 17 15 11 7 5 7 7 5 4 6 7 10 16 20 19 15 11 10 15 22 28 32 31 30 31 31 34 39 38 34 36 42 44
12 12 10 9 5 5 5 4 4 5 2 2 2 1 1 2 1 2 3 2 4 5 3 3 4 3 2 3 3 3 3 2 4 3 2 3 5 6 5 5 5 3 0 1 1 2 3 3 4 4 4 8 10 12 14 14 11 7 3 2 5 7 8 7 7 10 13 14 15 14 10 10 15 20 22 23 25 26 28 30 31 35 37 34 32 36 42 44
Wind_Direction
95 94 95 94 92 91 91 89 84 75 68 66 62 54 52 61 49 35 26 19 19 19 25 33 47 81 101 102 95 82 63 33 20 31 36 28 21 15 11 7 8 7 357 352 332 315 237 276 330 238 260 262 263 261 252 250 242 344 69 96 301 234 227 255 166 285 48 317 348 40 62 95 73 80 114 89 77 92 87 83 84 83 81 81 81 64 34 33
99 99 98 93 90 88 85 78 67 57 54 61 58 44 53 64 47 31 21 16 20 23 26 23 26 72 128 117 104 92 75 35 31 39 35 27 26 23 21 19 21 23 17 15 5 357 325 326 18 258 251 272 262 228 200 221 206 191 120 99 264 209 318 47 102 31 29 341 356 62 67 80 41 332 90 67 79 92 86 84 89 85 79 79 77 64 55 54
105 101 96 92 89 82 73 60 51 48 52 56 45 48 64 66 47 36 27 24 35 43 42 38 33 58 149 138 121 98 86 32 29 34 31 30 29 24 29 32 31 32 29 24 20 18 11 9 9 343 314 301 259 212 184 178 191 227 141 87 263 199 73 48 73 50 41 352 358 80 77 65 61 338 35 117 104 82 94 103 100 96 89 85 78 70 65 61
106 99 96 91 84 72 59 45 41 42 45 43 50 68 75 65 52 42 31 35 61 64 58 56 54 66 105 135 126 55 292 20 22 22 26 30 26 25 34 40 38 31 25 18 13 6 355 359 354 334 310 288 247 199 169 165 209 317 124 164 247 150 96 43 64 57 42 15 9 107 108 69 91 47 102 142 117 72 134 132 126 121 114 107 96 84 75 69
104 100 94 86 76 61 45 37 38 39 42 57 75 82 75 64 54 44 34 46 81 76 61 59 62 72 80 83 65 12 276 25 9 14 25 25 21 23 31 42 40 26 18 14 5 356 338 337 327 308 276 270 301 61 36 104 175 351 129 150 128 84 119 143 80 69 46 48 57 114 121 134 154 76 102 165 171 172 159 147 144 139 135 129 115 102 90 78
105 100 90 80 64 48 40 41 43 47 61 78 86 82 75 67 56 49 45 56 91 85 55 51 62 73 73 67 54 43 81 102 358 13 24 20 19 19 25 43 37 19 13 10 357 7 354 350 332 286 267 261 30 117 43 352 90 158 240 104 72 86 135 167 114 87 68 89 124 139 144 148 140 95 80 149 148 155 155 153 149 142 143 132 120 111 97 86
106 97 85 70 55 48 47 49 51 66 82 86 86 82 78 69 59 56 55 62 86 86 51 45 54 65 63 54 40 44 64 64 13 21 21 18 17 15 27 43 38 16 4 2 358 7 350 12 26 327 345 64 33 108 16 337 80 123 236 25 76 106 138 168 140 113 108 111 168 165 165 164 148 139 147 137 137 150 153 155 151 143 142 129 120 111 99 94
103 90 75 62 56 54 54 55 64 84 91 85 82 84 83 72 63 60 59 68 79 79 63 49 42 39 60 56 36 37 37 23 15 24 18 18 17 19 31 39 42 20 2 5 9 15 37 36 33 16 34 52 16 21 17 359 17 76 229 272 111 129 148 165 146 151 165 157 174 161 157 186 178 163 157 156 154 157 157 158 157 149 143 133 124 116 108 99
94 79 68 64 61 60 62 65 79 92 89 81 80 86 86 72 64 62 64 73 80 81 74 59 46 39 73 77 64 44 19 6 12 18 14 18 21 26 29 31 44 31 17 21 25 36 61 44 33 28 20 348 22 21 12 28 1 16 289 320 88 150 163 173 175 179 187 179 177 161 133 172 170 158 160 169 167 164 160 161 165 161 153 145 136 127 119 107
84 74 70 68 64 65 67 73 87 91 83 77 78 83 83 75 78 78 72 69 72 76 70 60 50 49 69 75 62 44 9 13 21 17 15 15 18 31 33 30 41 41 36 36 40 48 51 38 11 7 4 347 15 1 1 72 221 324 311 334 59 158 177 192 192 191 195 193 194 183 172 176 168 169 214 178 171 171 168 168 175 175 166 157 152 141 127 112
79 74 71 68 65 64 66 76 86 85 78 75 76 81 84 86 88 77 58 52 62 70 66 60 49 46 54 58 58 42 13 20 21 14 13 9 20 39 40 34 37 44 42 44 49 49 47 41 22 20 29 345 344 339 23 65 253 321 330 335 319 274 246 217 191 196 189 186 218 205 169 175 178 216 228 186 177 177 177 175 182 184 174 168 161 150 130 106
77 72 69 66 64 62 66 76 81 82 77 76 83 91 90 83 70 48 36 46 71 79 70 63 53 42 45 52 49 32 20 24 19 12 6 2 29 46 41 37 38 38 38 46 51 48 41 35 34 38 22 350 330 28 19 348 336 318 340 353 308 337 312 277 227 199 188 194 226 204 40 216 210 240 199 179 177 179 185 182 184 186 176 171 163 150 129 104
71 70 68 65 64 67 72 76 80 82 80 85 96 96 82 59 47 45 45 51 74 90 72 61 53 40 46 53 41 26 25 24 20 17 16 13 22 52 43 37 42 43 43 49 50 51 47 37 40 44 27 14 332 2 344 308 1 322 309 96 336 5 334 304 312 202 183 218 205 157 333 272 236 215 172 171 176 180 191 188 186 186 176 174 168 150 130 112
72 72 68 66 69 74 77 80 83 85 89 96 99 87 72 72 69 62 57 58 73 91 69 54 56 44 52 59 38 26 26 23 19 15 18 21 10 23 32 29 45 48 45 42 31 36 46 37 39 47 33 20 348 302 341 350 30 347 333 45 24 23 313 316 329 281 243 262 195 151 289 275 265 199 175 176 180 183 195 193 189 185 175 174 169 151 132 120
76 74 71 74 79 83 85 88 89 92 98 99 96 87 86 96 75 50 54 73 80 87 77 63 68 64 56 54 36 26 26 25 21 12 8 11 10 12 9 10 50 52 41 28 7 1 19 28 37 42 27 22 26 11 4 15 20 20 15 345 351 19 313 317 326 297 288 299 207 170 274 273 283 194 183 184 183 189 200 196 187 182 175 170 163 144 129 116
77 76 78 82 83 87 90 94 96 98 100 94 89 84 85 106 46 29 52 86 87 82 84 74 61 59 51 30 19 20 22 21 16 11 1 355 3 8 3 357 68 41 29 19 7 9 30 34 43 41 31 28 28 33 47 28 349 11 45 330 312 343 330 318 322 302 269 333 262 220 265 280 299 189 184 187 187 195 206 199 185 177 170 161 150 132 121 103
84 82 86 92 91 92 92 96 100 98 97 88 78 70 62 55 358 20 68 91 89 77 72 69 54 61 52 30 10 5 11 14 11 10 0 349 359 6 8 17 29 359 354 1 13 45 66 42 39 35 37 39 13 31 55 24 332 328 26 349 288 304 322 309 307 314 349 339 304 276 263 275 293 192 180 190 192 202 212 199 181 170 159 147 132 115 95 66
91 92 101 103 96 91 91 95 98 99 98 94 87 82 74 67 57 63 91 100 87 73 61 43 31 78 47 21 11 359 3 12 11 11 8 359 10 13 10 16 11 359 15 56 23 44 66 40 46 51 28 30 14 49 65 340 288 285 302 309 292 304 308 294 297 320 338 326 305 300 283 280 295 205 181 197 199 206 215 199 175 162 147 135 117 96 73 49
97 108 110 102 92 89 93 96 98 99 94 91 90 88 83 78 74 72 74 74 69 68 51 25 29 92 310 356 8 11 14 17 14 17 19 18 34 27 14 1 7 19 53 82 22 30 54 34 45 44 356 354 354 64 110 227 248 265 270 252 269 296 285 277 289 309 334 328 299 290 282 286 298 273 199 205 205 208 212 188 156 145 129 118 102 82 62 41
107 116 109 94 91 93 93 92 94 91 76 77 83 88 89 76 69 63 64 68 71 74 69 43 39 46 351 350 10 17 24 26 21 23 23 20 28 35 30 29 35 35 36 101 44 31 57 62 43 18 315 305 307 7 104 287 312 311 290 255 266 285 281 287 294 309 351 345 290 278 284 287 290 286 234 205 207 204 183 137 120 115 104 94 84 69 50 36
116 116 100 90 96 89 85 81 73 64 58 69 78 81 80 64 75 76 68 71 73 72 62 49 45 39 27 14 14 15 19 23 23 27 26 23 35 39 31 36 48 32 358 95 103 42 58 67 0 305 285 307 315 354 44 5 4 359 329 296 306 294 290 294 289 311 4 349 293 290 297 297 291 289 253 194 193 158 124 113 96 90 81 71 65 54 40 31
119 108 89 90 95 86 90 88 72 62 59 68 79 85 86 85 92 93 86 82 70 62 49 37 38 36 33 31 24 20 21 19 16 20 21 27 44 45 31 39 57 29 351 37 81 28 46 51 303 298 300 352 11 38 43 19 10 3 353 3 339 312 306 298 269 303 358 334 295 299 304 301 289 292 298 125 103 84 99 99 85 78 67 57 55 44 31 21
113 95 82 86 90 84 92 89 71 60 50 57 73 84 91 93 90 81 84 95 68 49 35 28 28 25 26 24 17 25 33 29 9 10 13 18 32 37 34 39 47 35 8 31 88 71 53 287 294 324 0 45 23 18 40 22 9 0 358 17 316 311 323 304 294 320 327 268 265 296 309 295 288 328 48 79 88 87 88 87 79 72 63 52 45 33 23 13
99 85 77 80 85 83 86 71 49 41 29 34 46 66 104 102 91 76 71 96 81 36 25 24 21 19 18 12 9 28 43 38 17 8 10 10 15 23 28 22 31 35 3 29 96 102 148 266 328 9 40 63 29 2 43 38 357 324 312 25 301 306 303 286 298 321 322 284 243 316 326 303 313 17 66 80 88 88 86 87 77 65 55 38 30 23 15 9
87 78 76 77 79 79 83 49 26 19 7 17 26 20 144 153 102 37 47 92 57 360 8 14 14 13 11 9 11 37 60 38 26 13 8 10 10 9 7 11 33 21 342 21 83 91 233 319 16 31 31 48 36 357 29 64 1 328 273 236 281 300 302 297 305 331 335 310 349 44 353 300 318 23 107 89 83 86 84 84 70 53 42 29 27 19 9 6
84 77 76 72 68 66 53 12 12 6 357 9 14 9 334 234 249 273 21 74 11 335 353 1 4 6 8 9 8 25 101 21 23 21 13 11 12 21 10 356 28 24 324 18 63 100 328 5 37 58 41 36 26 358 357 75 43 336 262 256 291 305 307 303 309 334 327 290 311 49 14 293 308 15 101 108 100 89 75 73 58 43 35 28 24 13 5 4
79 67 64 52 37 22 359 355 355 349 350 359 0 7 0 258 230 243 14 51 3 328 349 351 355 6 11 12 14 47 151 338 3 24 18 11 15 46 45 360 12 359 305 57 21 291 320 6 22 44 45 36 14 352 323 42 71 296 275 303 315 311 304 299 307 316 265 285 315 44 38 316 302 352 82 109 104 82 63 62 46 34 29 24 16 6 1 357
52 34 28 12 0 346 333 335 331 330 338 343 352 5 356 253 193 195 95 74 341 330 346 343 355 10 15 22 30 58 104 343 4 14 15 21 22 44 58 28 346 291 308 82 1 290 345 10 13 54 43 30 1 309 290 341 102 267 278 309 308 298 293 294 305 294 276 314 322 351 29 343 297 338 62 95 93 72 49 43 36 31 28 19 8 359 356 354
351 343 341 333 330 325 314 314 318 319 325 332 351 8 14 103 194 97 77 108 310 337 340 347 351 354 3 19 31 38 35 18 21 359 16 33 31 36 96 22 9 309 323 76 187 274 352 250 201 117 77 353 266 279 293 78 25 287 299 320 308 290 287 291 290 284 311 350 258 330 27 2 297 318 44 52 65 70 32 26 34 30 22 9 0 355 354 353
327 321 320 316 312 311 302 304 314 311 317 332 343 4 34 68 124 63 44 332 298 348 328 347 346 340 358 11 13 12 14 10 8 11 23 35 35 39 66 9 12 15 359 28 23 276 302 256 256 125 142 245 246 291 331 47 17 341 348 337 316 294 287 293 279 323 358 288 236 353 18 343 299 312 353 7 106 134 54 30 24 18 12 1 355 353 351 349
322 317 314 312 306 303 298 299 308 308 315 330 332 345 30 32 59 88 60 284 288 348 340 343 337 346 6 23 349 350 351 345 359 20 22 22 31 33 37 7 3 15 11 2 346 321 339 359 303 264 241 288 315 331 337 5 20 17 7 335 331 321 323 354 358 27 19 299 270 359 351 320 283 268 195 181 145 126 86 51 23 10 4 356 352 351 349 346
333 330 329 331 324 314 306 295 299 308 320 343 328 291 125 41 34 84 282 312 323 346 342 306 316 338 350 8 351 331 323 340 359 30 39 31 43 31 41 45 349 1 4 349 342 336 335 294 304 301 275 348 21 344 332 351 17 18 3 2 2 346 347 351 340 1 320 284 305 347 337 313 268 214 165 171 158 116 82 54 25 7 358 353 352 350 346 344
4 5 6 11 9 3 4 358 347 1 5 54 167 18 80 76 39 261 289 332 328 310 312 263 296 313 326 4 350 323 335 340 358 17 31 60 62 28 33 32 18 28 340 329 354 350 328 305 333 348 338 0 15 356 329 333 359 2 7 32 21 349 338 316 305 315 286 278 303 335 324 300 299 255 185 181 163 71 37 27 14 3 355 351 350 349 347 347
33 36 35 33 30 30 50 64 71 85 61 76 124 59 61 76 209 284 308 290 260 316 322 277 309 328 356 41 327 333 4 324 358 26 13 37 42 9 6 8 15 39 25 342 359 3 356 318 323 23 329 330 340 310 256 272 326 314 255 93 53 324 281 268 264 290 296 294 305 321 299 284 316 306 191 174 144 24 16 11 3 359 358 355 352 351 350 348
47 53 50 45 40 40 56 75 82 80 89 99 82 61 72 109 238 50 265 265 293 318 306 314 355 9 0 333 319 23 44 310 355 50 32 36 48 357 350 348 358 21 48 17 333 341 17 279 272 323 320 312 306 260 177 101 329 283 156 78 6 235 199 237 246 248 279 293 299 298 222 252 325 4 101 136 21 1 4 3 2 360 358 356 352 349 346 344
56 57 52 48 45 48 62 84 76 60 130 114 75 55 110 176 218 164 221 261 307 300 315 345 25 34 343 317 339 2 32 289 335 41 43 60 83 8 344 317 1 31 53 47 304 349 17 278 290 324 326 331 329 277 258 61 317 320 37 348 278 199 150 204 283 270 283 291 290 290 268 304 341 0 44 26 351 354 360 0 360 359 357 354 347 343 341 340
62 57 50 45 46 55 74 84 72 80 115 98 77 84 172 199 209 194 262 299 270 283 20 17 13 21 340 320 325 335 347 341 340 20 30 38 48 17 350 325 12 37 26 357 270 201 173 285 294 309 331 344 341 300 283 0 25 63 16 287 268 70 100 112 289 295 302 287 280 295 300 316 331 299 359 4 350 347 352 356 359 358 354 347 340 339 339 338
67 56 45 41 45 58 81 84 92 118 100 82 74 113 134 179 225 227 278 311 272 354 62 65 312 38 9 322 297 313 347 2 346 6 24 18 14 40 29 331 356 22 4 358 354 284 42 307 293 263 344 337 339 350 331 336 59 95 334 296 100 15 316 352 315 296 299 295 291 302 304 307 309 302 356 354 338 341 350 357 0 354 347 341 338 338 337 337
70 54 39 36 46 51 62 95 120 112 88 74 103 139 127 190 241 267 304 327 258 76 66 78 298 6 16 321 279 306 350 2 329 348 30 29 0 50 55 346 312 349 353 8 130 309 1 316 286 298 351 338 338 19 339 313 343 38 348 357 69 165 243 279 305 284 291 293 296 307 306 305 85 6 358 347 343 352 354 354 354 344 341 340 338 337 337 335
68 65 36 34 57 59 70 118 100 81 74 84 152 150 159 176 224 334 22 0 8 88 54 281 12 353 321 336 317 313 346 339 325 351 50 23 3 43 39 20 317 333 345 18 100 336 346 235 273 300 345 352 337 328 298 295 333 354 342 337 335 311 282 276 265 200 269 289 300 306 300 309 62 53 9 358 356 357 351 348 346 341 340 339 337 337 336 333
74 79 35 36 71 74 95 98 70 56 65 87 101 101 86 131 174 29 42 33 49 69 69 166 123 74 313 338 325 320 341 331 345 36 51 20 34 45 16 12 340 324 345 22 29 354 353 274 266 292 330 336 294 271 248 232 56 358 316 284 258 275 7 317 291 258 242 287 294 292 294 306 15 52 12 6 2 356 352 347 341 340 340 338 336 336 334 334
71 72 17 28 48 123 109 79 42 32 86 77 67 81 79 112 122 47 35 33 28 20 33 106 121 35 32 308 309 343 357 334 351 31 45 49 52 328 345 1 350 331 10 9 303 307 348 235 262 276 276 269 273 279 291 235 71 37 272 253 298 289 113 299 289 288 292 294 294 286 291 292 176 41 7 7 6 356 350 345 341 339 338 335 334 334 335 334
64 62 37 38 51 101 97 75 20 24 66 83 102 77 70 96 78 42 21 24 20 2 17 29 49 39 2 258 3 355 342 338 354 34 59 86 43 296 336 4 3 8 47 348 306 326 341 308 304 295 275 269 276 294 3 30 34 13 300 298 320 273 198 235 253 301 315 282 300 300 290 289 46 14 356 359 4 355 347 345 343 338 336 334 332 332 334 332
68 61 54 52 75 117 90 97 120 69 59 149 81 56 56 67 59 50 30 20 12 18 33 7 35 29 303 210 90 280 304 18 31 47 71 107 74 332 358 13 20 32 47 112 317 336 329 252 349 339 328 329 327 330 335 335 353 341 309 319 306 265 292 288 286 28 305 240 304 308 293 297 329 349 347 353 360 349 343 344 342 337 334 331 329 331 332 330
74 61 53 54 76 96 90 121 138 134 171 119 70 51 65 55 48 54 46 24 19 33 41 330 315 310 300 347 10 309 23 56 318 357 51 79 307 343 24 26 29 29 25 241 303 340 302 209 63 55 347 328 324 319 320 322 325 318 305 314 304 249 254 338 309 326 286 284 333 287 282 299 319 332 341 350 352 343 339 340 339 337 333 329 328 330 329 329
87 72 48 50 67 81 83 99 113 116 149 127 73 45 65 56 45 48 31 21 24 16 4 341 316 287 1 31 21 343 5 36 29 43 59 46 282 263 55 30 13 7 4 350 336 342 133 328 90 130 247 282 284 288 297 308 309 308 310 318 327 292 100 68 343 277 297 310 302 270 284 304 316 327 338 347 346 339 335 337 337 336 331 327 327 327 325 327
79 65 46 52 63 71 71 74 87 101 148 139 100 43 69 58 358 30 26 15 17 5 5 32 25 40 39 27 25 329 329 354 37 60 69 270 249 236 348 22 19 19 27 14 353 30 85 350 287 203 252 265 272 283 290 295 293 299 310 321 358 33 45 63 336 289 319 323 304 307 316 314 314 325 341 345 340 334 332 334 333 330 327 325 324 323 323 326
89 94 89 95 88 63 61 56 73 85 92 103 104 93 81 60 26 31 358 340 6 16 26 27 22 35 57 45 59 309 328 351 15 36 329 289 301 343 342 346 63 38 31 18 2 64 114 272 262 247 274 277 281 286 289 296 299 304 313 331 52 18 22 50 289 290 328 317 297 310 318 312 312 327 342 338 333 332 331 330 327 324 324 323 323 323 323 326
111 113 89 88 99 107 109 100 86 82 70 64 76 57 77 83 55 2 326 356 0 9 35 34 335 344 8 55 78 104 328 349 322 294 266 274 302 16 11 306 194 25 26 20 358 38 102 261 280 286 284 286 290 286 288 303 311 312 316 355 86 19 12 357 311 297 300 283 287 305 310 307 313 331 330 327 330 329 327 325 322 323 323 323 323 322 324 326
118 123 115 105 94 81 88 84 79 81 51 35 67 47 49 104 97 332 29 41 1 339 20 38 309 313 329 55 71 140 232 215 220 243 213 164 310 243 166 215 246 350 17 21 337 14 32 310 302 333 310 298 298 300 307 314 312 311 313 335 7 11 8 344 328 318 307 298 301 308 307 305 319 327 319 324 329 327 324 323 323 324 324 323 322 322 325 327
112 122 124 114 88 30 42 47 56 88 43 16 54 26 2 65 119 144 53 50 72 42 14 7 324 320 346 47 58 187 243 215 188 198 170 164 229 208 185 185 189 337 5 3 330 12 22 328 325 16 342 302 309 331 325 315 310 309 314 337 352 359 356 325 307 311 317 316 315 315 311 307 320 323 321 325 328 325 323 324 325 323 322 321 321 323 326 327
113 124 129 118 84 15 20 22 29 68 68 2 47 76 49 69 80 85 80 51 60 59 29 13 5 354 19 18 344 289 282 217 176 157 105 134 140 124 109 81 84 101 106 9 354 17 32 344 335 7 334 302 318 332 320 311 317 322 324 6 0 343 331 314 303 313 320 320 317 316 313 312 320 324 325 325 326 324 323 323 323 320 319 318 320 323 325 326